Time,TemperatureF,DewpointF,PressureIn,WindDirection,WindDirectionDegrees,WindSpeedMPH,WindSpeedGustMPH,Humidity,HourlyPrecipIn,Conditions,Clouds,dailyrainin,SoftwareType,DateUTC
2013-08-21 00:03:00,67.3,63.0,30.03,North,0,0.0,0.0,86,0.00,,CLR,0.00,VWS V14.01,2013-08-21 04:03:00,
2013-08-21 00:04:00,67.2,62.9,30.03,SW,221,0.0,0.0,86,0.00,,CLR,0.00,VWS V14.01,2013-08-21 04:04:00,
2013-08-21 00:09:00,67.0,62.7,30.03,SW,221,0.0,0.0,86,0.00,,CLR,0.00,VWS V14.01,2013-08-21 04:09:00,
2013-08-21 00:12:00,66.9,62.6,30.03,SW,221,0.0,0.0,86,0.00,,CLR,0.00,VWS V14.01,2013-08-21 04:12:00,
2013-08-21 00:17:00,66.8,62.5,30.03,SW,221,0.0,0.0,86,0.00,,CLR,0.00,VWS V14.01,2013-08-21 04:17:00,
2013-08-21 00:22:00,66.7,62.4,30.03,SW,221,0.0,0.0,86,0.00,,CLR,0.00,VWS V14.01,2013-08-21 04:22:00,
2013-08-21 00:27:00,66.6,62.0,30.04,SW,221,0.0,0.0,85,0.00,,CLR,0.00,VWS V14.01,2013-08-21 04:27:00,
2013-08-21 00:32:00,66.5,61.9,30.04,SW,221,0.0,0.0,85,0.00,,CLR,0.00,VWS V14.01,2013-08-21 04:32:00,
2013-08-21 00:37:00,66.4,61.8,30.04,SW,221,0.0,0.0,85,0.00,,CLR,0.00,VWS V14.01,2013-08-21 04:37:00,
2013-08-21 00:42:00,66.2,61.6,30.04,SW,221,0.0,0.0,85,0.00,,CLR,0.00,VWS V14.01,2013-08-21 04:42:00,
2013-08-21 00:47:00,66.2,61.6,30.04,SW,221,0.0,0.0,85,0.00,,CLR,0.00,VWS V14.01,2013-08-21 04:47:00,
2013-08-21 00:52:00,66.1,61.5,30.04,SW,221,0.0,0.0,85,0.00,,CLR,0.00,VWS V14.01,2013-08-21 04:52:00,
2013-08-21 00:57:00,66.0,61.0,30.04,SW,221,0.0,0.0,84,0.00,,CLR,0.00,VWS V14.01,2013-08-21 04:57:00,
2013-08-21 01:02:00,66.0,61.0,30.04,SW,221,0.0,0.0,84,0.00,,CLR,0.00,VWS V14.01,2013-08-21 05:02:00,
2013-08-21 01:07:00,65.9,60.9,30.04,SW,221,0.0,0.0,84,0.00,,CLR,0.00,VWS V14.01,2013-08-21 05:07:00,
2013-08-21 01:12:00,65.9,60.9,30.04,SW,221,0.0,0.0,84,0.00,,CLR,0.00,VWS V14.01,2013-08-21 05:12:00,
2013-08-21 01:17:00,65.6,60.6,30.04,SW,221,0.0,0.0,84,0.00,,CLR,0.00,VWS V14.01,2013-08-21 05:17:00,
2013-08-21 01:22:00,65.5,60.5,30.04,SW,221,0.0,0.0,84,0.00,,CLR,0.00,VWS V14.01,2013-08-21 05:22:00,
2013-08-21 01:27:00,65.3,60.3,30.04,SW,221,0.0,0.0,84,0.00,,CLR,0.00,VWS V14.01,2013-08-21 05:27:00,
2013-08-21 01:32:00,65.1,60.2,30.04,SW,221,0.0,0.0,84,0.00,,CLR,0.00,VWS V14.01,2013-08-21 05:32:00,
2013-08-21 01:37:00,65.0,59.7,30.04,SW,221,0.0,0.0,83,0.00,,,0.00,VWS V14.01,2013-08-21 05:37:00,
2013-08-21 01:42:00,65.0,59.7,30.04,SW,221,0.0,0.0,83,0.00,,,0.00,VWS V14.01,2013-08-21 05:42:00,
2013-08-21 01:47:00,65.0,59.7,30.04,SW,221,0.0,0.0,83,0.00,,,0.00,VWS V14.01,2013-08-21 05:47:00,
2013-08-21 01:52:00,65.0,59.7,30.04,SW,221,0.0,0.0,83,0.00,,,0.00,VWS V14.01,2013-08-21 05:52:00,
2013-08-21 01:57:00,64.9,59.6,30.04,SW,221,0.0,0.0,83,0.00,,,0.00,VWS V14.01,2013-08-21 05:57:00,
2013-08-21 02:02:00,64.9,59.6,30.05,SW,221,0.0,0.0,83,0.00,,,0.00,VWS V14.01,2013-08-21 06:02:00,
2013-08-21 02:07:00,64.8,59.5,30.05,SW,221,0.0,0.0,83,0.00,,,0.00,VWS V14.01,2013-08-21 06:07:00,
2013-08-21 02:12:00,64.7,59.8,30.05,SW,221,0.0,0.0,84,0.00,,,0.00,VWS V14.01,2013-08-21 06:12:00,
2013-08-21 02:17:00,64.7,59.8,30.05,SW,221,0.0,0.0,84,0.00,,,0.00,VWS V14.01,2013-08-21 06:17:00,
2013-08-21 02:22:00,64.6,59.7,30.05,SW,221,0.0,0.0,84,0.00,,,0.00,VWS V14.01,2013-08-21 06:22:00,
2013-08-21 02:27:00,64.6,59.3,30.05,SW,221,0.0,0.0,83,0.00,,,0.00,VWS V14.01,2013-08-21 06:27:00,
2013-08-21 02:32:00,64.5,59.2,30.05,SW,221,0.0,0.0,83,0.00,,,0.00,VWS V14.01,2013-08-21 06:32:00,
2013-08-21 02:37:00,64.4,59.1,30.05,SW,221,0.0,0.0,83,0.00,,,0.00,VWS V14.01,2013-08-21 06:37:00,
2013-08-21 02:42:00,64.4,59.1,30.05,SW,221,0.0,0.0,83,0.00,,,0.00,VWS V14.01,2013-08-21 06:42:00,
2013-08-21 02:47:00,64.5,59.2,30.05,SW,221,0.0,0.0,83,0.00,,,0.00,VWS V14.01,2013-08-21 06:47:00,
2013-08-21 02:52:00,64.5,59.2,30.05,SW,221,0.0,0.0,83,0.00,,,0.00,VWS V14.01,2013-08-21 06:52:00,
2013-08-21 02:57:00,64.5,59.2,30.05,SW,221,0.0,0.0,83,0.00,,,0.00,VWS V14.01,2013-08-21 06:57:00,
2013-08-21 03:02:00,64.4,59.1,30.05,SW,221,0.0,0.0,83,0.00,,,0.00,VWS V14.01,2013-08-21 07:02:00,
2013-08-21 03:07:00,64.4,59.1,30.05,SW,221,0.0,0.0,83,0.00,,,0.00,VWS V14.01,2013-08-21 07:07:00,
2013-08-21 03:12:00,64.3,59.0,30.05,SW,221,0.0,0.0,83,0.00,,,0.00,VWS V14.01,2013-08-21 07:12:00,
2013-08-21 03:17:00,64.3,59.0,30.05,SW,221,0.0,0.0,83,0.00,,,0.00,VWS V14.01,2013-08-21 07:17:00,
2013-08-21 03:22:00,64.5,58.9,30.05,SW,221,0.0,0.0,82,0.00,,,0.00,VWS V14.01,2013-08-21 07:22:00,
2013-08-21 03:27:00,64.5,59.2,30.05,SW,221,0.0,0.0,83,0.00,,,0.00,VWS V14.01,2013-08-21 07:27:00,
2013-08-21 03:32:00,64.5,59.2,30.05,SW,221,0.0,0.0,83,0.00,,,0.00,VWS V14.01,2013-08-21 07:32:00,
2013-08-21 03:37:00,64.4,59.1,30.05,SW,221,0.0,0.0,83,0.00,,,0.00,VWS V14.01,2013-08-21 07:37:00,
2013-08-21 03:42:00,64.4,59.1,30.05,SW,221,0.0,0.0,83,0.00,,,0.00,VWS V14.01,2013-08-21 07:42:00,
2013-08-21 03:47:00,64.4,59.5,30.05,SW,221,0.0,0.0,84,0.00,,,0.00,VWS V14.01,2013-08-21 07:47:00,
2013-08-21 03:52:00,64.3,59.4,30.05,SW,221,0.0,0.0,84,0.00,,,0.00,VWS V14.01,2013-08-21 07:52:00,
2013-08-21 03:57:00,64.2,59.3,30.05,SW,221,0.0,0.0,84,0.00,,,0.00,VWS V14.01,2013-08-21 07:57:00,
2013-08-21 04:02:00,64.2,59.3,30.05,SW,221,0.0,0.0,84,0.00,,,0.00,VWS V14.01,2013-08-21 08:02:00,
2013-08-21 04:07:00,64.2,59.3,30.05,SW,221,0.0,0.0,84,0.00,,,0.00,VWS V14.01,2013-08-21 08:07:00,
2013-08-21 04:12:00,64.2,59.3,30.05,SW,221,0.0,0.0,84,0.00,,,0.00,VWS V14.01,2013-08-21 08:12:00,
2013-08-21 04:17:00,64.1,59.2,30.05,SW,221,0.0,0.0,84,0.00,,,0.00,VWS V14.01,2013-08-21 08:17:00,
2013-08-21 04:23:00,64.1,59.2,30.05,SW,221,0.0,0.0,84,0.00,,,0.00,VWS V14.01,2013-08-21 08:23:00,
2013-08-21 04:28:00,64.0,59.1,30.05,SW,221,0.0,0.0,84,0.00,,,0.00,VWS V14.01,2013-08-21 08:28:00,
2013-08-21 04:33:00,63.9,59.0,30.05,SW,221,0.0,0.0,84,0.00,,,0.00,VWS V14.01,2013-08-21 08:33:00,
2013-08-21 04:38:00,63.9,59.0,30.05,SW,221,0.0,0.0,84,0.00,,,0.00,VWS V14.01,2013-08-21 08:38:00,
2013-08-21 04:43:00,63.9,59.0,30.05,SW,221,0.0,0.0,84,0.00,,,0.00,VWS V14.01,2013-08-21 08:43:00,
2013-08-21 04:48:00,63.9,59.0,30.06,SW,221,0.0,0.0,84,0.00,,,0.00,VWS V14.01,2013-08-21 08:48:00,
2013-08-21 04:53:00,63.9,59.0,30.05,SW,221,0.0,0.0,84,0.00,,,0.00,VWS V14.01,2013-08-21 08:53:00,
2013-08-21 04:58:00,63.8,58.9,30.06,SW,221,0.0,0.0,84,0.00,,,0.00,VWS V14.01,2013-08-21 08:58:00,
2013-08-21 05:03:00,63.8,58.9,30.06,SW,221,0.0,0.0,84,0.00,,,0.00,VWS V14.01,2013-08-21 09:03:00,
2013-08-21 05:08:00,63.8,58.9,30.06,SW,221,0.0,0.0,84,0.00,,,0.00,VWS V14.01,2013-08-21 09:08:00,
2013-08-21 05:13:00,63.7,58.8,30.06,SW,221,0.0,0.0,84,0.00,,,0.00,VWS V14.01,2013-08-21 09:13:00,
2013-08-21 05:18:00,63.7,58.8,30.06,SW,222,0.0,0.0,84,0.00,,,0.00,VWS V14.01,2013-08-21 09:18:00,
2013-08-21 05:23:00,63.7,58.8,30.06,SW,222,0.0,0.0,84,0.00,,,0.00,VWS V14.01,2013-08-21 09:23:00,
2013-08-21 05:28:00,63.6,58.7,30.06,SW,222,0.0,0.0,84,0.00,,,0.00,VWS V14.01,2013-08-21 09:28:00,
2013-08-21 05:33:00,63.6,58.7,30.06,SW,221,0.0,0.0,84,0.00,,,0.00,VWS V14.01,2013-08-21 09:33:00,
2013-08-21 05:38:00,63.5,58.6,30.07,SW,222,0.0,0.0,84,0.00,,,0.00,VWS V14.01,2013-08-21 09:38:00,
2013-08-21 05:43:00,63.5,58.6,30.07,SW,222,0.0,0.0,84,0.00,,,0.00,VWS V14.01,2013-08-21 09:43:00,
2013-08-21 05:48:00,63.6,58.7,30.07,SW,222,0.0,0.0,84,0.00,,,0.00,VWS V14.01,2013-08-21 09:48:00,
2013-08-21 05:53:00,63.7,58.8,30.07,SW,222,0.0,0.0,84,0.00,,,0.00,VWS V14.01,2013-08-21 09:53:00,
2013-08-21 05:58:00,63.7,59.1,30.07,SW,222,0.0,0.0,85,0.00,,,0.00,VWS V14.01,2013-08-21 09:58:00,
2013-08-21 06:03:00,63.6,59.0,30.07,SW,222,0.0,0.0,85,0.00,,,0.00,VWS V14.01,2013-08-21 10:03:00,
2013-08-21 06:08:00,63.6,59.0,30.07,SW,222,0.0,0.0,85,0.00,,,0.00,VWS V14.01,2013-08-21 10:08:00,
2013-08-21 06:13:00,63.7,59.1,30.07,SW,222,0.0,0.0,85,0.00,,,0.00,VWS V14.01,2013-08-21 10:13:00,
2013-08-21 06:18:00,63.6,59.0,30.07,SW,222,0.0,0.0,85,0.00,,,0.00,VWS V14.01,2013-08-21 10:18:00,
2013-08-21 06:23:00,63.6,59.0,30.07,SW,224,0.0,0.0,85,0.00,,,0.00,VWS V14.01,2013-08-21 10:23:00,
2013-08-21 06:28:00,63.6,59.0,30.07,SW,224,0.0,0.0,85,0.00,,,0.00,VWS V14.01,2013-08-21 10:28:00,
2013-08-21 06:33:00,63.7,58.8,30.07,SW,222,0.0,0.0,84,0.00,,,0.00,VWS V14.01,2013-08-21 10:33:00,
2013-08-21 06:38:00,63.8,58.9,30.07,SW,222,0.0,0.0,84,0.00,,,0.00,VWS V14.01,2013-08-21 10:38:00,
2013-08-21 06:43:00,64.0,59.1,30.07,SW,222,0.0,0.0,84,0.00,,,0.00,VWS V14.01,2013-08-21 10:43:00,
2013-08-21 06:48:00,64.2,59.3,30.08,SW,222,0.0,0.0,84,0.00,,,0.00,VWS V14.01,2013-08-21 10:48:00,
2013-08-21 06:53:00,64.5,59.6,30.08,SW,222,0.0,0.0,84,0.00,,,0.00,VWS V14.01,2013-08-21 10:53:00,
2013-08-21 06:58:00,64.8,60.2,30.08,SW,222,0.0,0.0,85,0.00,,,0.00,VWS V14.01,2013-08-21 10:58:00,
2013-08-21 07:03:00,65.2,60.6,30.08,SW,222,0.0,0.0,85,0.00,,,0.00,VWS V14.01,2013-08-21 11:03:00,
2013-08-21 07:08:00,65.8,61.5,30.08,SW,222,0.0,0.0,86,0.00,,,0.00,VWS V14.01,2013-08-21 11:08:00,
2013-08-21 07:13:00,66.6,62.6,30.08,SW,222,0.0,0.0,87,0.00,,,0.00,VWS V14.01,2013-08-21 11:13:00,
2013-08-21 07:18:00,67.7,63.7,30.08,SW,221,0.0,0.0,87,0.00,,,0.00,VWS V14.01,2013-08-21 11:18:00,
2013-08-21 07:23:00,68.2,63.9,30.08,WSW,256,0.0,0.0,86,0.00,,,0.00,VWS V14.01,2013-08-21 11:23:00,
2013-08-21 07:28:00,68.6,64.2,30.08,WSW,256,0.0,0.0,86,0.00,,,0.00,VWS V14.01,2013-08-21 11:28:00,
2013-08-21 07:33:00,69.0,64.3,30.08,WNW,288,0.0,0.0,85,0.00,,,0.00,VWS V14.01,2013-08-21 11:33:00,
2013-08-21 07:38:00,69.8,64.8,30.08,WNW,288,0.0,0.0,84,0.00,,CLR,0.00,VWS V14.01,2013-08-21 11:38:00,
2013-08-21 07:43:00,70.8,65.4,30.08,WNW,288,0.0,0.0,83,0.00,,CLR,0.00,VWS V14.01,2013-08-21 11:43:00,
2013-08-21 07:48:00,71.5,65.4,30.08,WNW,288,0.0,0.0,81,0.00,,CLR,0.00,VWS V14.01,2013-08-21 11:48:00,
2013-08-21 07:53:00,71.4,65.3,30.08,WNW,288,0.0,0.0,81,0.00,,CLR,0.00,VWS V14.01,2013-08-21 11:53:00,
2013-08-21 07:58:00,72.0,65.5,30.08,NNE,22,0.0,0.0,80,0.00,,CLR,0.00,VWS V14.01,2013-08-21 11:58:00,
2013-08-21 08:03:00,72.3,65.8,30.08,WNW,298,0.0,0.0,80,0.00,,CLR,0.00,VWS V14.01,2013-08-21 12:03:00,
2013-08-21 08:08:00,73.5,66.6,30.08,WNW,300,0.0,0.0,79,0.00,,CLR,0.00,VWS V14.01,2013-08-21 12:08:00,
2013-08-21 08:13:00,74.8,66.7,30.08,WNW,300,0.0,1.0,76,0.00,,CLR,0.00,VWS V14.01,2013-08-21 12:13:00,
2013-08-21 08:18:00,75.4,66.9,30.08,WNW,297,0.0,0.0,75,0.00,,CLR,0.00,VWS V14.01,2013-08-21 12:18:00,
2013-08-21 08:23:00,75.5,66.6,30.08,SE,136,0.0,0.0,74,0.00,,CLR,0.00,VWS V14.01,2013-08-21 12:23:00,
2013-08-21 08:28:00,75.6,66.7,30.08,SE,124,0.0,0.0,74,0.00,,CLR,0.00,VWS V14.01,2013-08-21 12:28:00,
2013-08-21 08:33:00,75.8,66.9,30.08,ESE,105,1.0,1.0,74,0.00,,CLR,0.00,VWS V14.01,2013-08-21 12:33:00,
2013-08-21 08:38:00,76.2,67.7,30.08,SE,146,1.0,1.0,75,0.00,,CLR,0.00,VWS V14.01,2013-08-21 12:38:00,
2013-08-21 08:43:00,76.7,67.8,30.08,ESE,115,1.0,1.0,74,0.00,,CLR,0.00,VWS V14.01,2013-08-21 12:43:00,
2013-08-21 08:48:00,76.9,67.6,30.08,ESE,103,2.0,2.0,73,0.00,,CLR,0.00,VWS V14.01,2013-08-21 12:48:00,
2013-08-21 08:53:00,76.9,67.6,30.08,ESE,105,0.0,0.0,73,0.00,,CLR,0.00,VWS V14.01,2013-08-21 12:53:00,
2013-08-21 08:58:00,77.3,67.6,30.08,NNW,348,0.0,1.0,72,0.00,,CLR,0.00,VWS V14.01,2013-08-21 12:58:00,
2013-08-21 09:04:00,77.6,67.9,30.08,SW,222,1.0,1.0,72,0.00,,CLR,0.00,VWS V14.01,2013-08-21 13:04:00,
2013-08-21 09:09:00,78.0,67.8,30.08,West,261,0.0,0.0,71,0.00,,CLR,0.00,VWS V14.01,2013-08-21 13:09:00,
2013-08-21 09:14:00,77.6,67.1,30.08,NNW,345,0.0,1.0,70,0.00,,CLR,0.00,VWS V14.01,2013-08-21 13:14:00,
2013-08-21 09:19:00,77.8,67.7,30.08,ESE,109,0.0,0.0,71,0.00,,CLR,0.00,VWS V14.01,2013-08-21 13:19:00,
2013-08-21 09:24:00,78.2,67.6,30.08,ESE,103,0.0,0.0,70,0.00,,CLR,0.00,VWS V14.01,2013-08-21 13:24:00,
2013-08-21 09:29:00,78.5,67.5,30.08,WNW,298,0.0,1.0,69,0.00,,CLR,0.00,VWS V14.01,2013-08-21 13:29:00,
2013-08-21 09:34:00,78.8,68.2,30.08,SSW,212,0.0,1.0,70,0.00,,CLR,0.00,VWS V14.01,2013-08-21 13:34:00,
2013-08-21 09:39:00,79.9,68.4,30.08,West,269,0.0,1.0,68,0.00,,CLR,0.00,VWS V14.01,2013-08-21 13:39:00,
2013-08-21 09:44:00,81.0,68.6,30.08,West,269,0.0,0.0,66,0.00,,CLR,0.00,VWS V14.01,2013-08-21 13:44:00,
2013-08-21 09:49:00,80.6,68.6,30.08,NW,312,1.0,2.0,67,0.00,,CLR,0.00,VWS V14.01,2013-08-21 13:49:00,
2013-08-21 09:54:00,80.6,68.6,30.08,WNW,297,0.0,1.0,67,0.00,,CLR,0.00,VWS V14.01,2013-08-21 13:54:00,
2013-08-21 09:59:00,81.3,68.9,30.08,West,263,1.0,1.0,66,0.00,,CLR,0.00,VWS V14.01,2013-08-21 13:59:00,
2013-08-21 10:04:00,82.0,68.6,30.08,West,274,0.0,0.0,64,0.00,,CLR,0.00,VWS V14.01,2013-08-21 14:04:00,
2013-08-21 10:09:00,82.0,68.2,30.08,West,278,0.0,0.0,63,0.00,,CLR,0.00,VWS V14.01,2013-08-21 14:09:00,
2013-08-21 10:14:00,82.1,68.3,30.08,West,278,1.0,1.0,63,0.00,,CLR,0.00,VWS V14.01,2013-08-21 14:14:00,
2013-08-21 10:19:00,82.2,68.4,30.08,NW,304,1.0,3.0,63,0.00,,CLR,0.00,VWS V14.01,2013-08-21 14:19:00,
2013-08-21 10:24:00,82.2,68.4,30.08,WNW,284,1.0,1.0,63,0.00,,CLR,0.00,VWS V14.01,2013-08-21 14:24:00,
2013-08-21 10:29:00,82.2,68.4,30.08,West,280,0.0,0.0,63,0.00,,CLR,0.00,VWS V14.01,2013-08-21 14:29:00,
2013-08-21 10:34:00,82.8,68.9,30.08,ESE,108,0.0,0.0,63,0.00,,CLR,0.00,VWS V14.01,2013-08-21 14:34:00,
2013-08-21 10:39:00,83.7,68.8,30.08,WSW,252,3.0,4.0,61,0.00,,CLR,0.00,VWS V14.01,2013-08-21 14:39:00,
2013-08-21 10:44:00,84.5,69.1,30.07,East,96,1.0,1.0,60,0.00,,CLR,0.00,VWS V14.01,2013-08-21 14:44:00,
2013-08-21 10:49:00,85.0,68.6,30.07,ESE,110,0.0,2.0,58,0.00,,CLR,0.00,VWS V14.01,2013-08-21 14:49:00,
2013-08-21 10:54:00,85.7,68.7,30.08,SE,146,1.0,1.0,57,0.00,,CLR,0.00,VWS V14.01,2013-08-21 14:54:00,
2013-08-21 10:59:00,85.8,67.8,30.08,WSW,248,1.0,2.0,55,0.00,,CLR,0.00,VWS V14.01,2013-08-21 14:59:00,
2013-08-21 11:04:00,86.1,68.1,30.07,SW,226,0.0,1.0,55,0.00,,CLR,0.00,VWS V14.01,2013-08-21 15:04:00,
2013-08-21 11:09:00,86.7,68.1,30.07,SSW,202,1.0,2.0,54,0.00,,CLR,0.00,VWS V14.01,2013-08-21 15:09:00,
2013-08-21 11:14:00,87.1,69.5,30.07,ESE,106,2.0,2.0,56,0.00,,CLR,0.00,VWS V14.01,2013-08-21 15:14:00,
2013-08-21 11:19:00,87.2,69.6,30.07,SSE,151,1.0,2.0,56,0.00,,CLR,0.00,VWS V14.01,2013-08-21 15:19:00,
2013-08-21 11:24:00,87.3,68.6,30.07,SE,142,1.0,3.0,54,0.00,,CLR,0.00,VWS V14.01,2013-08-21 15:24:00,
2013-08-21 11:29:00,87.0,68.9,30.07,ESE,111,2.0,2.0,55,0.00,,CLR,0.00,VWS V14.01,2013-08-21 15:29:00,
2013-08-21 11:34:00,86.6,71.1,30.07,East,101,1.0,3.0,60,0.00,,CLR,0.00,VWS V14.01,2013-08-21 15:34:00,
2013-08-21 11:39:00,85.7,69.7,30.07,East,89,2.0,3.0,59,0.00,,CLR,0.00,VWS V14.01,2013-08-21 15:39:00,
2013-08-21 11:44:00,84.3,69.9,30.07,East,79,1.0,2.0,62,0.00,,CLR,0.00,VWS V14.01,2013-08-21 15:44:00,
2013-08-21 11:49:00,83.8,69.9,30.07,SE,127,2.0,2.0,63,0.00,,CLR,0.00,VWS V14.01,2013-08-21 15:49:00,
2013-08-21 11:54:00,83.8,69.9,30.06,East,84,0.0,2.0,63,0.00,,CLR,0.00,VWS V14.01,2013-08-21 15:54:00,
2013-08-21 11:59:00,83.3,69.4,30.07,East,86,2.0,2.0,63,0.00,,CLR,0.00,VWS V14.01,2013-08-21 15:59:00,
2013-08-21 12:04:00,83.2,67.4,30.06,East,82,6.0,6.0,59,0.00,,CLR,0.00,VWS V14.01,2013-08-21 16:04:00,
2013-08-21 12:09:00,83.2,69.3,30.06,SSE,157,0.0,1.0,63,0.00,,CLR,0.00,VWS V14.01,2013-08-21 16:09:00,
2013-08-21 12:14:00,83.5,69.1,30.06,WNW,302,3.0,3.0,62,0.00,,CLR,0.00,VWS V14.01,2013-08-21 16:14:00,
2013-08-21 12:19:00,83.2,68.8,30.06,NNE,25,2.0,2.0,62,0.00,,CLR,0.00,VWS V14.01,2013-08-21 16:19:00,
2013-08-21 12:24:00,83.0,69.1,30.06,SSE,156,1.0,3.0,63,0.00,,CLR,0.00,VWS V14.01,2013-08-21 16:24:00,
2013-08-21 12:29:00,83.9,68.1,30.05,East,98,1.0,1.0,59,0.00,,CLR,0.00,VWS V14.01,2013-08-21 16:29:00,
2013-08-21 12:34:00,84.1,68.7,30.05,East,92,2.0,2.0,60,0.00,,CLR,0.00,VWS V14.01,2013-08-21 16:34:00,
2013-08-21 12:39:00,84.0,69.1,30.05,WNW,287,2.0,4.0,61,0.00,,CLR,0.00,VWS V14.01,2013-08-21 16:39:00,
2013-08-21 12:44:00,84.2,69.8,30.05,SE,132,2.0,3.0,62,0.00,,CLR,0.00,VWS V14.01,2013-08-21 16:44:00,
2013-08-21 12:49:00,85.7,69.2,30.05,West,263,2.0,2.0,58,0.00,,CLR,0.00,VWS V14.01,2013-08-21 16:49:00,
2013-08-21 12:54:00,87.3,70.2,30.05,WSW,252,0.0,1.0,57,0.00,,CLR,0.00,VWS V14.01,2013-08-21 16:54:00,
2013-08-21 12:59:00,87.6,70.0,30.05,SE,129,4.0,4.0,56,0.00,,CLR,0.00,VWS V14.01,2013-08-21 16:59:00,
2013-08-21 13:04:00,86.6,70.6,30.05,SE,129,1.0,3.0,59,0.00,,CLR,0.00,VWS V14.01,2013-08-21 17:04:00,
2013-08-21 13:09:00,87.2,69.6,30.05,ESE,121,0.0,3.0,56,0.00,,CLR,0.00,VWS V14.01,2013-08-21 17:09:00,
2013-08-21 13:14:00,88.4,68.0,30.05,WNW,297,3.0,3.0,51,0.00,,CLR,0.00,VWS V14.01,2013-08-21 17:14:00,
2013-08-21 13:19:00,87.7,67.3,30.04,West,278,0.0,2.0,51,0.00,,CLR,0.00,VWS V14.01,2013-08-21 17:19:00,
2013-08-21 13:24:00,87.5,67.2,30.04,WNW,292,0.0,2.0,51,0.00,,CLR,0.00,VWS V14.01,2013-08-21 17:24:00,
2013-08-21 13:29:00,87.5,67.7,30.04,WNW,292,2.0,2.0,52,0.00,,CLR,0.00,VWS V14.01,2013-08-21 17:29:00,
2013-08-21 13:34:00,88.4,66.8,30.04,West,267,4.0,5.0,49,0.00,,CLR,0.00,VWS V14.01,2013-08-21 17:34:00,
2013-08-21 13:39:00,88.4,66.8,30.04,NW,308,1.0,1.0,49,0.00,,FEW050,0.00,VWS V14.01,2013-08-21 17:39:00,
2013-08-21 13:44:00,88.1,66.6,30.04,WNW,298,1.0,2.0,49,0.00,,FEW050,0.00,VWS V14.01,2013-08-21 17:44:00,
2013-08-21 13:49:00,88.3,69.0,30.03,NE,38,2.0,2.0,53,0.00,,FEW050,0.00,VWS V14.01,2013-08-21 17:49:00,
2013-08-21 13:54:00,86.2,69.2,30.03,North,360,3.0,3.0,57,0.00,,FEW050,0.00,VWS V14.01,2013-08-21 17:54:00,
2013-08-21 13:59:00,84.6,68.2,30.03,East,84,4.0,5.0,58,0.00,,FEW050,0.00,VWS V14.01,2013-08-21 17:59:00,
2013-08-21 14:04:00,84.4,68.5,30.03,ENE,70,2.0,2.0,59,0.00,,FEW050,0.00,VWS V14.01,2013-08-21 18:04:00,
2013-08-21 14:09:00,83.8,68.4,30.03,NNE,16,2.0,2.0,60,0.00,,FEW050,0.00,VWS V14.01,2013-08-21 18:09:00,
2013-08-21 14:14:00,83.5,69.6,30.03,ESE,111,0.0,1.0,63,0.00,,FEW050,0.00,VWS V14.01,2013-08-21 18:14:00,
2013-08-21 14:19:00,84.2,68.8,30.03,ENE,72,2.0,2.0,60,0.00,,FEW050,0.00,VWS V14.01,2013-08-21 18:19:00,
2013-08-21 14:24:00,83.2,68.4,30.03,NNW,333,1.0,2.0,61,0.00,,FEW050,0.00,VWS V14.01,2013-08-21 18:24:00,
2013-08-21 14:29:00,82.3,68.0,30.02,East,91,3.0,4.0,62,0.00,,FEW050,0.00,VWS V14.01,2013-08-21 18:29:00,
2013-08-21 14:34:00,82.0,68.2,30.02,NE,47,0.0,2.0,63,0.00,,FEW050,0.00,VWS V14.01,2013-08-21 18:34:00,
2013-08-21 14:39:00,82.8,68.5,30.02,South,169,1.0,1.0,62,0.00,,FEW050,0.00,VWS V14.01,2013-08-21 18:39:00,
2013-08-21 14:44:00,83.2,68.4,30.02,South,170,1.0,2.0,61,0.00,,FEW050,0.00,VWS V14.01,2013-08-21 18:44:00,
2013-08-21 14:49:00,83.0,68.2,30.02,NE,43,0.0,1.0,61,0.00,,FEW050,0.00,VWS V14.01,2013-08-21 18:49:00,
2013-08-21 14:54:00,83.3,68.5,30.02,East,84,0.0,0.0,61,0.00,,FEW050,0.00,VWS V14.01,2013-08-21 18:54:00,
2013-08-21 14:59:00,83.6,68.7,30.02,SE,138,0.0,1.0,61,0.00,,FEW050,0.00,VWS V14.01,2013-08-21 18:59:00,
2013-08-21 15:04:00,83.6,68.7,30.02,NNW,335,1.0,1.0,61,0.00,,FEW050,0.00,VWS V14.01,2013-08-21 19:04:00,
2013-08-21 15:09:00,83.9,68.5,30.02,NNE,18,1.0,1.0,60,0.00,,FEW050,0.00,VWS V14.01,2013-08-21 19:09:00,
2013-08-21 15:14:00,83.9,69.0,30.02,East,99,2.0,2.0,61,0.00,,FEW050,0.00,VWS V14.01,2013-08-21 19:14:00,
2013-08-21 15:19:00,83.6,68.7,30.01,East,79,2.0,3.0,61,0.00,,FEW050,0.00,VWS V14.01,2013-08-21 19:19:00,
2013-08-21 15:24:00,83.8,68.9,30.01,ESE,112,0.0,0.0,61,0.00,,FEW050,0.00,VWS V14.01,2013-08-21 19:24:00,
2013-08-21 15:29:00,84.7,69.8,30.01,SSW,203,1.0,3.0,61,0.00,,FEW050,0.00,VWS V14.01,2013-08-21 19:29:00,
2013-08-21 15:34:00,85.8,70.3,30.01,ENE,77,2.0,2.0,60,0.00,,FEW050,0.00,VWS V14.01,2013-08-21 19:34:00,
2013-08-21 15:39:00,85.7,67.7,30.01,North,359,1.0,5.0,55,0.00,,FEW050,0.00,VWS V14.01,2013-08-21 19:39:00,
2013-08-21 15:45:00,86.1,69.6,30.01,SW,236,0.0,1.0,58,0.00,,FEW050,0.00,VWS V14.01,2013-08-21 19:45:00,
2013-08-21 15:50:00,86.7,69.7,30.00,SSW,204,1.0,1.0,57,0.00,,FEW050,0.00,VWS V14.01,2013-08-21 19:50:00,
2013-08-21 15:55:00,87.2,68.0,30.00,South,181,1.0,3.0,53,0.00,,FEW050,0.00,VWS V14.01,2013-08-21 19:55:00,
2013-08-21 16:00:00,87.9,68.1,30.00,SW,233,1.0,4.0,52,0.00,,FEW050,0.00,VWS V14.01,2013-08-21 20:00:00,
2013-08-21 16:05:00,88.2,68.4,30.00,SSE,155,2.0,2.0,52,0.00,,FEW050,0.00,VWS V14.01,2013-08-21 20:05:00,
2013-08-21 16:10:00,88.1,68.8,30.00,SE,129,1.0,2.0,53,0.00,,FEW050,0.00,VWS V14.01,2013-08-21 20:10:00,
2013-08-21 16:15:00,88.1,68.8,30.00,SW,214,5.0,5.0,53,0.00,,FEW050,0.00,VWS V14.01,2013-08-21 20:15:00,
2013-08-21 16:20:00,87.8,69.6,30.00,ESE,119,0.0,1.0,55,0.00,,FEW050,0.00,VWS V14.01,2013-08-21 20:20:00,
2013-08-21 16:25:00,87.7,69.0,30.00,SW,225,0.0,1.0,54,0.00,,FEW050,0.00,VWS V14.01,2013-08-21 20:25:00,
2013-08-21 16:30:00,87.5,68.8,29.99,SW,231,1.0,1.0,54,0.00,,FEW050,0.00,VWS V14.01,2013-08-21 20:30:00,
2013-08-21 16:35:00,86.9,69.3,30.00,SW,215,1.0,3.0,56,0.00,,FEW050,0.00,VWS V14.01,2013-08-21 20:35:00,
2013-08-21 16:40:00,86.3,69.3,30.00,WSW,255,1.0,1.0,57,0.00,,FEW050,0.00,VWS V14.01,2013-08-21 20:40:00,
2013-08-21 16:45:00,86.0,68.5,29.99,South,184,1.0,2.0,56,0.00,,FEW050,0.00,VWS V14.01,2013-08-21 20:45:00,
2013-08-21 16:50:00,85.7,68.7,29.99,SSW,198,0.0,2.0,57,0.00,,FEW050,0.00,VWS V14.01,2013-08-21 20:50:00,
2013-08-21 16:55:00,85.6,68.6,29.99,West,262,1.0,1.0,57,0.00,,FEW050,0.00,VWS V14.01,2013-08-21 20:55:00,
2013-08-21 17:00:00,85.3,68.3,29.99,SSE,166,2.0,2.0,57,0.00,,FEW050,0.00,VWS V14.01,2013-08-21 21:00:00,
2013-08-21 17:05:00,85.0,68.6,29.99,SSW,193,0.0,2.0,58,0.00,,FEW050,0.00,VWS V14.01,2013-08-21 21:05:00,
2013-08-21 17:10:00,84.9,68.5,29.99,South,186,0.0,0.0,58,0.00,,FEW050,0.00,VWS V14.01,2013-08-21 21:10:00,
2013-08-21 17:15:00,85.0,68.6,29.98,West,270,0.0,1.0,58,0.00,,FEW050,0.00,VWS V14.01,2013-08-21 21:15:00,
2013-08-21 17:20:00,84.9,68.5,29.98,SSW,201,1.0,2.0,58,0.00,,FEW050,0.00,VWS V14.01,2013-08-21 21:20:00,
2013-08-21 17:25:00,85.0,68.6,29.99,SW,232,1.0,1.0,58,0.00,,FEW050,0.00,VWS V14.01,2013-08-21 21:25:00,
2013-08-21 17:30:00,84.9,68.5,29.98,SW,217,1.0,1.0,58,0.00,,FEW050,0.00,VWS V14.01,2013-08-21 21:30:00,
2013-08-21 17:35:00,84.7,68.3,29.98,ESE,107,1.0,2.0,58,0.00,,FEW050,0.00,VWS V14.01,2013-08-21 21:35:00,
2013-08-21 17:40:00,84.4,68.5,29.98,West,278,1.0,2.0,59,0.00,,CLR,0.00,VWS V14.01,2013-08-21 21:40:00,
2013-08-21 17:45:00,84.0,68.1,29.98,SSW,213,0.0,1.0,59,0.00,,CLR,0.00,VWS V14.01,2013-08-21 21:45:00,
2013-08-21 17:50:00,83.7,68.3,29.98,WSW,253,1.0,1.0,60,0.00,,CLR,0.00,VWS V14.01,2013-08-21 21:50:00,
2013-08-21 17:55:00,83.4,68.1,29.98,SW,226,2.0,3.0,60,0.00,,CLR,0.00,VWS V14.01,2013-08-21 21:55:00,
2013-08-21 18:00:00,82.7,67.9,29.98,WSW,257,0.0,1.0,61,0.00,,CLR,0.00,VWS V14.01,2013-08-21 22:00:00,
2013-08-21 18:05:00,82.4,68.6,29.98,WSW,243,1.0,1.0,63,0.00,,CLR,0.00,VWS V14.01,2013-08-21 22:05:00,
2013-08-21 18:10:00,82.0,68.2,29.98,WSW,251,1.0,1.0,63,0.00,,CLR,0.00,VWS V14.01,2013-08-21 22:10:00,
2013-08-21 18:15:00,81.6,68.2,29.98,SW,230,2.0,2.0,64,0.00,,CLR,0.00,VWS V14.01,2013-08-21 22:15:00,
2013-08-21 18:20:00,81.4,68.5,29.98,SW,228,1.0,1.0,65,0.00,,CLR,0.00,VWS V14.01,2013-08-21 22:20:00,
2013-08-21 18:25:00,81.2,68.3,29.98,SSW,194,1.0,1.0,65,0.00,,CLR,0.00,VWS V14.01,2013-08-21 22:25:00,
2013-08-21 18:30:00,80.9,68.0,29.98,SSW,195,0.0,2.0,65,0.00,,CLR,0.00,VWS V14.01,2013-08-21 22:30:00,
2013-08-21 18:35:00,80.5,68.1,29.98,SW,219,0.0,0.0,66,0.00,,CLR,0.00,VWS V14.01,2013-08-21 22:35:00,
2013-08-21 18:40:00,80.3,67.9,29.98,SW,217,0.0,0.0,66,0.00,,CLR,0.00,VWS V14.01,2013-08-21 22:40:00,
2013-08-21 18:45:00,80.0,68.1,29.97,SW,221,0.0,0.0,67,0.00,,CLR,0.00,VWS V14.01,2013-08-21 22:45:00,
2013-08-21 18:50:00,79.8,67.9,29.97,SW,235,0.0,0.0,67,0.00,,CLR,0.00,VWS V14.01,2013-08-21 22:50:00,
2013-08-21 18:56:00,79.4,67.9,29.97,West,263,0.0,2.0,68,0.00,,CLR,0.00,VWS V14.01,2013-08-21 22:56:00,
2013-08-21 19:01:00,79.1,67.6,29.97,SSW,208,1.0,1.0,68,0.00,,CLR,0.00,VWS V14.01,2013-08-21 23:01:00,
2013-08-21 19:06:00,78.9,67.9,29.97,SSW,208,0.0,0.0,69,0.00,,CLR,0.00,VWS V14.01,2013-08-21 23:06:00,
2013-08-21 19:11:00,78.7,67.7,29.97,SW,225,1.0,1.0,69,0.00,,CLR,0.00,VWS V14.01,2013-08-21 23:11:00,
2013-08-21 19:16:00,78.4,67.8,29.97,SSW,204,0.0,1.0,70,0.00,,CLR,0.00,VWS V14.01,2013-08-21 23:16:00,
2013-08-21 19:21:00,78.2,67.6,29.97,WSW,246,0.0,0.0,70,0.00,,CLR,0.00,VWS V14.01,2013-08-21 23:21:00,
2013-08-21 19:26:00,77.9,67.3,29.97,WSW,249,1.0,1.0,70,0.00,,CLR,0.00,VWS V14.01,2013-08-21 23:26:00,
2013-08-21 19:31:00,77.8,67.2,29.97,WSW,252,0.0,1.0,70,0.00,,CLR,0.00,VWS V14.01,2013-08-21 23:31:00,
2013-08-21 19:36:00,77.5,67.4,29.97,SW,217,0.0,0.0,71,0.00,,CLR,0.00,VWS V14.01,2013-08-21 23:36:00,
2013-08-21 19:41:00,77.3,67.2,29.97,SW,236,0.0,1.0,71,0.00,,CLR,0.00,VWS V14.01,2013-08-21 23:41:00,
2013-08-21 19:46:00,77.1,67.0,29.97,SW,232,1.0,1.0,71,0.00,,CLR,0.00,VWS V14.01,2013-08-21 23:46:00,
2013-08-21 19:51:00,76.9,67.2,29.97,SW,232,0.0,0.0,72,0.00,,CLR,0.00,VWS V14.01,2013-08-21 23:51:00,
2013-08-21 19:56:00,76.7,67.0,29.97,SW,232,0.0,0.0,72,0.00,,CLR,0.00,VWS V14.01,2013-08-21 23:56:00,
2013-08-21 20:01:00,76.4,67.1,29.97,SW,232,0.0,0.0,73,0.00,,CLR,0.00,VWS V14.01,2013-08-22 00:01:00,
2013-08-21 20:06:00,76.2,66.9,29.97,SSE,147,0.0,0.0,73,0.00,,CLR,0.00,VWS V14.01,2013-08-22 00:06:00,
2013-08-21 20:11:00,76.1,66.8,29.97,SSE,158,0.0,0.0,73,0.00,,CLR,0.00,VWS V14.01,2013-08-22 00:11:00,
2013-08-21 20:16:00,75.9,67.0,29.97,SSE,158,0.0,0.0,74,0.00,,CLR,0.00,VWS V14.01,2013-08-22 00:16:00,
2013-08-21 20:21:00,75.6,66.7,29.97,SSE,158,0.0,0.0,74,0.00,,CLR,0.00,VWS V14.01,2013-08-22 00:21:00,
2013-08-21 20:26:00,75.3,66.8,29.97,SSE,158,0.0,0.0,75,0.00,,CLR,0.00,VWS V14.01,2013-08-22 00:26:00,
2013-08-21 20:31:00,75.1,66.6,29.97,SSE,158,0.0,0.0,75,0.00,,CLR,0.00,VWS V14.01,2013-08-22 00:31:00,
2013-08-21 20:36:00,74.9,66.8,29.97,SSE,158,0.0,0.0,76,0.00,,CLR,0.00,VWS V14.01,2013-08-22 00:36:00,
2013-08-21 20:41:00,74.8,66.7,29.97,SSE,158,0.0,0.0,76,0.00,,CLR,0.00,VWS V14.01,2013-08-22 00:41:00,
2013-08-21 20:46:00,74.8,66.7,29.97,SSE,158,0.0,0.0,76,0.00,,CLR,0.00,VWS V14.01,2013-08-22 00:46:00,
2013-08-21 20:51:00,74.8,66.7,29.97,SSE,158,0.0,0.0,76,0.00,,CLR,0.00,VWS V14.01,2013-08-22 00:51:00,
2013-08-21 20:56:00,74.7,67.0,29.97,SSE,158,0.0,0.0,77,0.00,,CLR,0.00,VWS V14.01,2013-08-22 00:56:00,
2013-08-21 21:01:00,74.7,67.0,29.97,SSE,158,0.0,0.0,77,0.00,,CLR,0.00,VWS V14.01,2013-08-22 01:01:00,
2013-08-21 21:06:00,74.6,66.9,29.97,SSE,158,0.0,0.0,77,0.00,,CLR,0.00,VWS V14.01,2013-08-22 01:06:00,
2013-08-21 21:11:00,74.4,66.7,29.97,SSE,158,0.0,0.0,77,0.00,,CLR,0.00,VWS V14.01,2013-08-22 01:11:00,
2013-08-21 21:16:00,74.2,66.9,29.97,SSE,158,0.0,0.0,78,0.00,,CLR,0.00,VWS V14.01,2013-08-22 01:16:00,
2013-08-21 21:21:00,74.1,66.8,29.97,SSE,158,0.0,0.0,78,0.00,,CLR,0.00,VWS V14.01,2013-08-22 01:21:00,
2013-08-21 21:26:00,74.0,67.1,29.97,SSE,158,0.0,0.0,79,0.00,,CLR,0.00,VWS V14.01,2013-08-22 01:26:00,
2013-08-21 21:31:00,74.0,67.1,29.97,SSE,158,0.0,0.0,79,0.00,,CLR,0.00,VWS V14.01,2013-08-22 01:31:00,
2013-08-21 21:36:00,74.0,67.1,29.97,SSE,158,0.0,0.0,79,0.00,,CLR,0.00,VWS V14.01,2013-08-22 01:36:00,
2013-08-21 21:41:00,74.0,67.1,29.97,SSE,158,0.0,0.0,79,0.00,,CLR,0.00,VWS V14.01,2013-08-22 01:41:00,
2013-08-21 21:46:00,74.1,67.2,29.97,SW,233,0.0,0.0,79,0.00,,CLR,0.00,VWS V14.01,2013-08-22 01:46:00,
2013-08-21 21:51:00,74.3,67.0,29.97,WSW,243,1.0,2.0,78,0.00,,CLR,0.00,VWS V14.01,2013-08-22 01:51:00,
2013-08-21 21:56:00,74.5,67.2,29.97,WSW,239,1.0,1.0,78,0.00,,CLR,0.00,VWS V14.01,2013-08-22 01:56:00,
2013-08-21 22:01:00,74.6,67.3,29.97,SW,229,1.0,1.0,78,0.00,,CLR,0.00,VWS V14.01,2013-08-22 02:01:00,
2013-08-21 22:06:00,74.6,66.9,29.97,SW,231,0.0,1.0,77,0.00,,CLR,0.00,VWS V14.01,2013-08-22 02:06:00,
2013-08-21 22:11:00,74.6,66.9,29.97,WSW,239,0.0,1.0,77,0.00,,CLR,0.00,VWS V14.01,2013-08-22 02:11:00,
2013-08-21 22:16:00,74.6,66.9,29.97,SW,232,0.0,1.0,77,0.00,,CLR,0.00,VWS V14.01,2013-08-22 02:16:00,
2013-08-21 22:21:00,74.6,66.9,29.97,WSW,240,0.0,1.0,77,0.00,,CLR,0.00,VWS V14.01,2013-08-22 02:21:00,
2013-08-21 22:26:00,74.6,66.9,29.96,WSW,243,0.0,0.0,77,0.00,,CLR,0.00,VWS V14.01,2013-08-22 02:26:00,
2013-08-21 22:31:00,74.4,66.7,29.96,WSW,243,0.0,0.0,77,0.00,,CLR,0.00,VWS V14.01,2013-08-22 02:31:00,
2013-08-21 22:36:00,74.3,66.6,29.96,WSW,243,0.0,0.0,77,0.00,,CLR,0.00,VWS V14.01,2013-08-22 02:36:00,
2013-08-21 22:41:00,74.1,66.4,29.96,SW,222,0.0,0.0,77,0.00,,CLR,0.00,VWS V14.01,2013-08-22 02:41:00,
2013-08-21 22:46:00,74.0,66.7,29.96,SW,224,0.0,0.0,78,0.00,,CLR,0.00,VWS V14.01,2013-08-22 02:46:00,
2013-08-21 22:51:00,73.8,66.5,29.96,SW,231,0.0,0.0,78,0.00,,CLR,0.00,VWS V14.01,2013-08-22 02:51:00,
2013-08-21 22:56:00,73.6,66.3,29.96,SW,233,0.0,0.0,78,0.00,,CLR,0.00,VWS V14.01,2013-08-22 02:56:00,
2013-08-21 23:01:00,73.5,66.2,29.96,SW,231,0.0,0.0,78,0.00,,CLR,0.00,VWS V14.01,2013-08-22 03:01:00,
2013-08-21 23:06:00,73.3,66.0,29.96,SW,231,0.0,0.0,78,0.00,,CLR,0.00,VWS V14.01,2013-08-22 03:06:00,
2013-08-21 23:11:00,73.1,65.8,29.96,SW,233,0.0,0.0,78,0.00,,CLR,0.00,VWS V14.01,2013-08-22 03:11:00,
2013-08-21 23:16:00,73.0,66.1,29.96,SW,233,0.0,0.0,79,0.00,,CLR,0.00,VWS V14.01,2013-08-22 03:16:00,
2013-08-21 23:21:00,72.8,65.9,29.96,SW,231,0.0,0.0,79,0.00,,CLR,0.00,VWS V14.01,2013-08-22 03:21:00,
2013-08-21 23:26:00,72.6,65.7,29.96,SW,231,0.0,0.0,79,0.00,,CLR,0.00,VWS V14.01,2013-08-22 03:26:00,
2013-08-21 23:31:00,72.4,65.5,29.96,SW,231,0.0,0.0,79,0.00,,CLR,0.00,VWS V14.01,2013-08-22 03:31:00,
2013-08-21 23:36:00,72.2,65.7,29.96,SW,231,0.0,0.0,80,0.00,,FEW250,0.00,VWS V14.01,2013-08-22 03:36:00,
2013-08-21 23:41:00,72.0,65.5,29.96,SW,231,0.0,0.0,80,0.00,,FEW250,0.00,VWS V14.01,2013-08-22 03:41:00,
2013-08-21 23:46:00,71.8,65.3,29.96,SW,233,0.0,0.0,80,0.00,,FEW250,0.00,VWS V14.01,2013-08-22 03:46:00,
2013-08-21 23:51:00,71.7,65.6,29.96,SW,233,0.0,0.0,81,0.00,,FEW250,0.00,VWS V14.01,2013-08-22 03:51:00,
2013-08-21 23:56:00,71.5,65.4,29.96,SW,232,0.0,0.0,81,0.00,,FEW250,0.00,VWS V14.01,2013-08-22 03:56:00,